FW5474 Weather Reports


time (UTC)temp
F
wind
direction
speed
knots
gust
knots
rain 1hr
in
rain 24hr
in
rain mn
in
humidity
%
barometer
mb
20260510083003 66 250 0.0 1.7 0.00 0.30 0.05 99 1016.0
20260510081507 66 250 0.0 3.5 0.00 0.30 0.05 99 1015.9
20260510080001 66 255 0.0 2.6 0.00 0.30 0.05 99 1015.4
20260510074601 66 271 0.0 0.0 0.01 0.30 0.05 99 1015.2
20260510073114 66 271 0.9 1.7 0.01 0.30 0.05 99 1015.6
20260510071606 66 271 0.0 1.7 0.01 0.30 0.05 99 1015.6
20260510070055 66 271 0.0 0.9 0.02 0.30 0.05 99 1015.4
20260510064600 66 271 0.0 0.0 0.01 0.28 0.04 99 1015.3
20260510063052 67 271 0.0 0.9 0.02 0.28 0.04 99 1015.3
20260510061549 67 271 1.7 2.6 0.02 0.28 0.04 99 1015.7
20260510060044 66 271 0.0 0.0 0.02 0.28 0.03 99 1015.7
20260510054540 67 271 0.0 0.0 0.03 0.28 0.03 99 1015.8
20260510053040 67 271 0.0 0.0 0.02 0.27 0.02 99 1016.0
20260510051543 67 271 0.0 0.9 0.02 0.27 0.02 99 1016.0
20260510050041 67 271 0.0 1.7 0.01 0.26 0.01 99 1016.2
20260510044545 67 271 0.9 2.6 0.00 0.25 0.00 99 1016.4
20260510043036 67 271 0.9 1.7 0.00 0.25 0.00 99 1016.2
20260510041534 67 271 0.0 1.7 0.00 0.25 0.00 99 1016.0
20260510040032 67 271 0.0 1.7 0.00 0.25 0.25 99 1016.0
20260510034535 67 271 0.0 2.6 0.00 0.25 0.25 99 1015.8
20260510033031 67 257 1.7 4.3 0.00 0.25 0.25 99 1015.8
20260510031533 67 232 1.7 3.5 0.00 0.25 0.25 99 1015.6
20260510030030 67 239 0.0 2.6 0.00 0.28 0.25 99 1015.6
20260510024530 67 239 1.7 4.3 0.00 0.28 0.25 98 1015.4
20260510023031 67 230 0.0 3.5 0.00 0.28 0.25 99 1015.2
20260510021535 67 277 1.7 6.1 0.01 0.28 0.25 98 1015.3
20260510020028 67 262 0.0 1.7 0.01 0.31 0.25 98 1014.9
20260510014527 67 260 2.6 6.1 0.01 0.31 0.25 98 1015.3
20260510013026 67 243 2.6 4.3 0.01 0.31 0.25 98 1015.1
20260510011527 67 224 0.9 5.2 0.00 0.30 0.24 98 1014.9
20260510010025 67 257 0.9 4.3 0.00 0.30 0.24 99 1015.1
20260510004525 68 242 0.9 7.8 0.00 0.30 0.24 99 1015.0
20260510003028 68 199 4.3 9.6 0.00 0.30 0.24 99 1014.7
20260510001524 68 219 3.5 10.4 0.00 0.30 0.24 98 1014.7
20260510000024 68 214 4.3 8.7 0.00 0.30 0.24 98 1014.6
20260509234529 68 196 2.6 7.0 0.01 0.30 0.24 98 1014.2
20260509233022 69 185 5.2 7.8 0.03 0.30 0.24 98 1014.4
20260509231521 69 172 0.9 4.3 0.03 0.30 0.24 98 1013.9
20260509230021 69 223 0.9 3.5 0.04 0.30 0.24 98 1013.9
20260509224520 69 233 0.0 0.0 0.03 0.28 0.23 98 1014.0
20260509223025 70 235 0.0 0.0 0.01 0.27 0.21 98 1014.0
20260509221521 70 235 0.0 2.6 0.01 0.27 0.21 98 1014.0
20260509220018 69 219 0.0 3.5 0.00 0.26 0.20 98 1013.6
20260509214517 70 300 0.9 4.3 0.00 0.26 0.20 98 1014.0
20260509213018 69 292 0.0 0.9 0.00 0.26 0.20 98 1014.1
20260509211516 69 292 1.7 3.5 0.00 0.26 0.20 98 1014.3
20260509210024 69 292 0.0 4.3 0.00 0.26 0.20 98 1014.0
20260509204516 69 292 3.5 6.1 0.00 0.26 0.20 98 1014.4
20260509203018 69 286 6.1 9.6 0.00 0.26 0.20 98 1014.5
20260509201515 70 232 2.6 6.1 0.01 0.26 0.20 98 1014.4
20260509200114 69 224 4.3 7.8 0.02 0.26 0.20 98 1014.3
20260509194514 69 238 3.5 6.1 0.03 0.26 0.20 98 1014.0
20260509193015 69 218 0.0 5.2 0.04 0.26 0.20 98 1013.8
20260509191514 69 200 0.9 3.5 0.05 0.25 0.19 98 1014.0
20260509190014 69 239 0.9 6.1 0.11 0.24 0.18 98 1014.3
20260509184520 69 265 0.9 7.8 0.12 0.23 0.17 98 1014.4
20260509183014 69 284 4.3 8.7 0.14 0.22 0.16 97 1014.8
20260509181510 69 284 6.1 9.6 0.13 0.20 0.14 97 1015.1
20260509180009 70 277 8.7 13.0 0.07 0.13 0.07 96 1015.5
20260509174509 71 270 7.0 11.3 0.04 0.10 0.04 95 1015.5
20260509173008 72 270 7.8 11.3 0.02 0.08 0.02 94 1015.3
20260509171520 73 271 7.8 11.3 0.01 0.07 0.01 92 1015.2
20260509170023 74 275 5.2 8.7 0.00 0.06 0.00 92 1015.3
20260509164503 74 269 5.2 7.8 0.00 0.06 0.00 92 1015.1
20260509163002 74 265 2.6 8.7 0.00 0.06 0.00 92 1015.3
20260509161602 74 291 5.2 7.8 0.00 0.06 0.00 92 1015.4
20260509160059 74 267 4.3 8.7 0.00 0.06 0.00 92 1015.2
20260509154559 74 284 5.2 7.8 0.00 0.06 0.00 92 1015.2
20260509153056 74 281 2.6 8.7 0.00 0.06 0.00 92 1015.3
20260509151550 74 248 5.2 7.8 0.00 0.06 0.00 92 1015.3
20260509150050 73 280 3.5 8.7 0.00 0.06 0.00 94 1015.4
20260509144541 72 229 2.6 7.8 0.00 0.06 0.00 95 1015.6
20260509143037 72 239 2.6 7.0 0.00 0.06 0.00 96 1015.6
20260509141534 71 286 2.6 6.1 0.00 0.06 0.00 97 1015.5
20260509140028 71 252 1.7 7.8 0.00 0.06 0.00 98 1015.6
20260509134528 70 225 0.9 4.3 0.00 0.06 0.00 99 1015.7
20260509133026 70 177 0.0 0.0 0.00 0.06 0.00 99 1015.4
20260509131531 69 167 0.0 0.0 0.00 0.06 0.00 99 1015.4
20260509130024 68 140 0.0 1.7 0.00 0.06 0.00 99 1015.4
20260509124522 68 137 0.0 0.9 0.00 0.06 0.00 99 1015.1
20260509123017 67 133 0.0 0.9 0.00 0.06 0.00 99 1015.1
20260509121524 67 132 0.0 1.7 0.00 0.06 0.00 99 1015.0
20260509120013 66 130 0.0 0.0 0.00 0.06 0.00 99 1014.6
20260509114522 65 130 0.0 0.0 0.00 0.06 0.00 99 1014.6
20260509113013 65 130 0.0 0.0 0.00 0.06 0.00 99 1014.6
20260509111512 65 130 0.0 0.0 0.00 0.06 0.00 99 1014.5
20260509110012 65 130 0.0 0.0 0.00 0.06 0.00 99 1014.2
20260509104511 65 130 1.7 2.6 0.00 0.06 0.00 99 1013.8
20260509103010 65 130 0.0 0.0 0.00 0.06 0.00 98 1013.9
20260509101509 65 130 0.0 3.5 0.00 0.06 0.00 99 1013.7
20260509100019 65 134 0.9 1.7 0.00 0.06 0.00 99 1013.5
20260509094512 65 134 0.0 3.5 0.00 0.06 0.00 99 1013.4
20260509093010 65 132 0.0 7.0 0.00 0.06 0.00 99 1013.2
20260509091506 65 162 0.9 5.2 0.00 0.06 0.00 98 1013.6
20260509090005 65 24 1.7 3.5 0.00 0.06 0.00 99 1013.5
20260509084510 65 351 0.0 0.9 0.00 0.06 0.00 99 1013.9